DELTA 1 DEB, 26847

Orbit data source: Space-Track

DELTA 1 DEB, 26847 is space debris in SSO originally from a launch on Thu, 12 Jun 1975 UTC launched from the Air Force Western Test Range (AFWTR). Debris objects in space refer to the collection of defunct objects orbiting the Earth. Examples of debris include non-operational satellites, rocket bodies, and fragments generated from explosions, collisions, or faulty payload assembly.

Loading next visibility...
Identifier
26847, 1975-052LB
Orbit
SSO
Country
Flag of USUS
Related business
Manufacturer
Unknown
Mission
Spacecraft
Bus & Motor
Unknown
Mass
Unknown
Launch date (UTC)
1975-06-12 (50 years ago)
Launch vehicle
Unknown
Launch site
Air Force Western Test Range (AFWTR)
Object type
Payload
Rocket body
Debris
Shape & HBR
Unknown shape, 0.1 m
Radar Cross Section
Small (<0.1 m²)

Expand to show TLE details & history
Last TLE update: 14 hours ago

TLE from 14 hours ago
0 DELTA 1 DEB
1 26847U 75052LB  25300.02185630 -.00000003  00000-0  82501-4 0  9995
2 26847  99.6759 318.1673 0090433  17.8864  38.9184 13.27097080381974
Epoch: 2025-10-27T00:31Z
TLE epoch observation values (Epoch: 2025-10-27T00:31:28.384Z)
Latitude
56.30229°
Longitude
-100.06671°
Altitude
1,114.244 km
Speed
7.326 km/s
True Right ascension
20h 13m 43s
True Declination
56° 09' 03"
Sunlit
Object was in daylight at epoch
Visualization orbit readout
Latitude
Unknown
Longitude
Unknown
Altitude
Unknown
Speed
Unknown
Apparent Right ascension
Unknown
Apparent Declination
Unknown
Sunlit
N/A
Visualization observer readout
Local Sidereal Time
09:58:03
Azimuth
Unknown
Elevation
Unknown
Doppler factor
Unknown
Orbital elements
Apogee altitude
1,223.188 km
Perigee altitude
1,086.938 km
Semi-major axis
7,533.2 km
Eccentricity
0.00904
Inclination
99.6759°
RAAN
318.1673°
Arg. of periapsis
17.8864°
True anomaly
39.57517°
Mean anomaly
38.9184°
Eccentric anomaly
39.24621°
Mean motion
3.31951 °/min
Orbital period
108.45 mins
BSTAR
0.000082501
Loading maneuver chart data...
Computing Atmospheric mass density...
Loading historical data...
Loading historical data...
Loading historical data...
Loading historical data...
Loading historical data...
Loading historical data...
Loading historical data...

Documentation

Showing up to 5 results
|